Location: Bavegemberg
(50.9500°N, 3.8833°E)
Time: 09:43:46
(UTC+00:00)

SL-16 R/B - Pass Details

Date: 23 May 2024
Orbit: 985 x 1007 km, 99.7° (Epoch: 14 June)

Event Time Altitude Azimuth Distance (km) Brightness Sun altitude
Rises 01:48:32 0° 152° (SSE) 3,722 5.2 -13.1°
Reaches altitude 10° 01:51:00 10° 150° (SSE) 2,777 4.6 -12.9°
Maximum altitude 01:57:13 70° 69° (ENE) 1,068 2.9 -12.4°
Drops below altitude 10° 02:03:28 10° 347° (NNW) 2,794 5.5 -11.9°
Sets 02:05:58 0° 345° (NNW) 3,746 6.2 -11.7°
